Location: La Tine
(46.4708°N, 7.0525°E)
Time: 16:43:37
(UTC+00:00)

Ariane Rocket - Pass Details

Date: 18 September 2020
Orbit: 760 x 770 km, 98.7° (Epoch: 30 October)

Event Time Altitude Azimuth Distance (km) Brightness Sun altitude
Exits shadow 18:09:44 - 129° (SE) 2,881 5.4 -6.5°
Reaches altitude 10° 18:11:23 10° 121° (ESE) 2,297 4.9 -6.8°
Maximum altitude 18:15:40 29° 63° (ENE) 1,394 3.9 -7.5°
Drops below altitude 10° 18:19:58 10° 6° (N) 2,315 5.6 -8.2°
Sets 18:22:32 0° 355° (N) 3,247 6.5 -8.7°
